Weather History for PAMR - May, 2013

Change the Weather History Date:

Tuesday, May 21, 2013

  Actual Average Record
Temperature  
Mean Temperature 44 °F -  
Max Temperature 53 °F 57 °F 78 °F (2002)
Min Temperature 35 °F 40 °F 35 °F (2013)
Degree Days  
Heating Degree Days 22    
Moisture  
Dew Point 26 °F    
Average Humidity 48    
Maximum Humidity 61    
Minimum Humidity 39    
Precipitation  
Precipitation 0.00 in - - ()
Sea Level Pressure  
Sea Level Pressure 30.43 in    
Wind  
Wind Speed 4 mph (West)    
Max Wind Speed 13 mph    
Max Gust Speed -    
Visibility 10 miles    
Events      
Averages and records for this station are not official NWS values.
T = Trace of Precipitation, MM = Missing Value Source: NWS Daily Summary

Daily Weather History Graph

Daily Weather History Graph

Search for Another Location

Airport or City:

Trip Planner

Search our weather history database for the weather conditions in past years. The results will help you decide how hot, cold, wet, or windy it might be!

Date:

Astronomy

May. 21, 2013 Rise Set
Actual Time 4:56 AM AKDT 10:57 PM AKDT
Civil Twilight 3:37 AM AKDT 12:18 AM AKDT
Nautical Twilight Sun does not rise Sun does not rise
Astronomical Twilight Sun does not rise Sun does not rise
Moon 6:21 PM AKDT (5/21) 3:43 AM AKDT (5/21)
Length of Visible Light 20h 40m
Length of Day
18h 00m
Waxing Gibbous, 85% of the Moon is Illuminated
May 21
Waxing Gibbous
May 24
Full
May 31
Last Quarter
Jun 8
New
Jun 16
First Quarter

Hourly Weather History & Observations

Time (AKDT) Temp. Windchill Dew Point Humidity Pressure Visibility Wind Dir Wind Speed Gust Speed Precip Events Conditions
12:53 AM 41.0 °F - 21.0 °F 45% 30.57 in 10.0 mi Calm Calm - N/A   Mostly Cloudy
1:53 AM 39.0 °F - 21.9 °F 50% 30.56 in 10.0 mi Calm Calm - N/A   Mostly Cloudy
2:53 AM 37.0 °F 34.5 °F 23.0 °F 57% 30.56 in 10.0 mi SE 3.5 mph - N/A   Mostly Cloudy
3:53 AM 37.0 °F - 23.0 °F 57% 30.55 in 10.0 mi Calm Calm - N/A   Scattered Clouds
4:53 AM 35.1 °F 31.0 °F 23.0 °F 61% 30.53 in 10.0 mi East 4.6 mph - N/A   Scattered Clouds
5:53 AM 35.1 °F - 21.9 °F 59% 30.53 in 10.0 mi Calm Calm - N/A   Mostly Cloudy
6:53 AM 37.9 °F - 23.0 °F 55% 30.51 in 10.0 mi Calm Calm - N/A   Mostly Cloudy
7:53 AM 42.1 °F 40.2 °F 21.9 °F 45% 30.51 in 10.0 mi East 3.5 mph - N/A   Clear
8:53 AM 44.1 °F - 25.0 °F 47% 30.49 in 10.0 mi Calm Calm - N/A   Clear
9:53 AM 46.9 °F - 27.0 °F 46% 30.47 in 10.0 mi NW 4.6 mph - N/A   Clear
10:53 AM 46.9 °F - 27.0 °F 46% 30.45 in 10.0 mi WNW 6.9 mph - N/A   Clear
11:53 AM 50.0 °F - 26.1 °F 39% 30.43 in 10.0 mi WNW 9.2 mph - N/A   Clear
12:53 PM 50.0 °F - 27.0 °F 41% 30.42 in 10.0 mi WNW 8.1 mph - N/A   Clear
1:53 PM 50.0 °F - 32.0 °F 50% 30.41 in 10.0 mi West 10.4 mph - N/A   Clear
2:53 PM 52.0 °F - 30.0 °F 43% 30.39 in 10.0 mi West 11.5 mph - N/A   Scattered Clouds
3:53 PM 50.0 °F - 30.9 °F 48% 30.38 in 10.0 mi West 12.7 mph - N/A   Mostly Cloudy
4:53 PM 50.0 °F - 28.9 °F 44% 30.36 in 10.0 mi West 12.7 mph - N/A   Scattered Clouds
5:53 PM 48.9 °F - 28.9 °F 46% 30.35 in 10.0 mi NW 10.4 mph - N/A   Mostly Cloudy
6:53 PM 50.0 °F - 30.0 °F 46% 30.31 in 10.0 mi WNW 6.9 mph - N/A   Clear
7:53 PM 50.0 °F - 26.1 °F 39% 30.30 in 10.0 mi West 6.9 mph - N/A   Partly Cloudy
8:53 PM 48.9 °F - 26.1 °F 41% 30.29 in 10.0 mi SW 5.8 mph - N/A   Clear
9:53 PM 46.0 °F 43.1 °F 23.0 °F 40% 30.29 in 10.0 mi South 5.8 mph - N/A   Clear
10:53 PM 45.0 °F 42.6 °F 28.9 °F 53% 30.28 in 10.0 mi South 4.6 mph - N/A   Scattered Clouds
11:53 PM 44.1 °F - 30.9 °F 60% 30.27 in 10.0 mi Calm Calm - N/A   Mostly Cloudy